APRIZESAT 10 (40019 NORAD) Tracking and Keplerian Element Data

This shows tracking and keplerian element data for the satellite.

Feedback or suggestion? Click here.




ElementValue
Catalog40019
NameAPRIZESAT 10
Epoch Orbit21822
Epoch Day198.83127601
Epoch Year2018
RAAN57.0029
Inclination97.7823
Eccentricity0.0085184
Argument of Perigee142.8249
Mean Anonmoly217.8897
Mean Motion14.66947294
Decay Rate2.5E-07
L11 40019U 14033K 18198.83127601 .00000025 00000-0 12562-4 0 9997
L22 40019 97.7823 57.0029 0085184 142.8249 217.8897 14.66947294218220

Live tracking and technical data element details for APRIZESAT 10 (NORAD 40019). APRIZESAT 10 can be tracked NOW for your location showing map with azimuth and elevation plus other details from your city location.

Track the satellite on the map from your city or location and see movement details for azimuth, elevation, latitude, longitude, range, height, and movement on the map or in text.







IsCatalogInMostPopularTable: catalog: 40019, numindb: 46
Update: records affected: 1



GetName: 40019 APRIZESAT 10

Hit Count: updated at: Thu, 19 Jul 2018 21:25:22 GMT